"Pseudo-MPEC" for P10Oju1

Created 2019 Jun 15 19:09:10 UT using Find_Orb

Click here for an explanation of pseudo-MPECs

 
 Astrometry: 
     P10Oju1  C2019 05 29'qZqhx):Jp=Qk\BYAjV\(R9;[jnsC7x$b2uP0Xj5NbfsD.R?y/U[F51
     P10Oju1  C2019 05 29;nPv8yo56G9RZhAstrometry)DFMYNiyG3b,ac;v$/U%$7oLQH,?F51
     P10Oju1  C2019 05 29+P@XdnHcp5KJvfgkE!C#H%:rQE@7?KA_]+-_IWOt'K;HpWnqnN#MF51
     P10Oju1  C2019 06 01Cu$Boredacted;oa@click7WvbqE?Ft!KiIAF=9!fAX9SraHgHBXF51
     P10Oju1  C2019 06 01#SUeJT*pN_A=/=0slQQ,J^$1`E3\$65Y!:3`dE`Y.#Q53$'UghmkF51
     P10Oju1  C2019 06 01yS735;#%NY?a?)#C7MFBbYGixWfJhere@#m-mb0r6ikRbNU'rFTiF51
     P10Oju1  C2019 06 01pRj9PFJppM6ttCg].9sw^K`2[g^[uW$k/n^9;//16_0wG+sA]WFCF51
     P10Oju1  C2019 06 10D[d(=9_A^n6Ba+QKpA%0R6yb0tEAuBeV`nsy-;7V+Y=6eh`,mp8JF52
     P10Oju1  C2019 06 10-lforfqfe8aaXGLk3,7explanationikJ-'5OhBw8Z!ELApm,c.GF52
     P10Oju1  C2019 06 10ALnGHZ$9$pceQynsuE2/F16g(]MEktfrBgjD!n]%!DpT9CO^U8_gF52

Station data:
(F51) Pan-STARRS 1, Haleakala  (N20.707235 W156.255910)  US/Hawaii.
   Observers N. Primak, A. Schultz, S. Watters, J. Thiel, T. Goggia. Measurer
   PS1 Science Consortium. 1.8-m Ritchey-Chrétien + CCD.
(F52) Pan-STARRS 2, Haleakala  (N20.707384 W156.255910)  US/Hawaii. 1.8-m
   Ritchey-Chrétien + CCD.

Orbital elements:  P10Oju1
   Perihelion 2025 Apr 12.127512 +/- 2146 TT =  3:03:37 (JD 2460777.627512)
Epoch 2019 Jun 10.0 TT = JDT 2458644.5   Ju: 0.1165           AutoNEOCP
M 182.19838783 +/- 170              (J2000 ecliptic)
n   0.08335254 +/- 0.00139          Peri.  237.09918 +/- 15
a   5.19027215 +/- 0.0574           Node   262.11990 +/- 0.26
e   0.0839398 +/- 0.0133            Incl.   27.13730 +/- 0.07
P  11.82                   H 14.4   G  0.15   U  9.3  
q 4.75460138 +/- 0.118    Q 5.62594292 +/- 0.0366
From 10 observations 2019 May 29-June 10; mean residual 0".08
Residuals in arcseconds: 
190529 F51  .00   .00     190601 F51  .00   .08-    190610 F52  .19+  .10+    
190529 F51  .01+  .05-    190601 F51  .01-  .00     190610 F52  .25-  .09-    
190529 F51  .00   .05+    190601 F51  .01+  .06+    
190601 F51  .01-  .02+    190610 F52  .06+  .01-    

Ephemerides (geocentric):
Date (UTC) HH   RA              Dec         delta   r     elong  mag " sig PA
---- -- -- --  -------------   -----------  ------ ------ -----  --- ---- ---
2019 06 15 19  21 28 21.806   +11 54 36.96  5.1528 5.6255 112.8 22.3 1.12  90
2019 06 15 20  21 28 21.450   +11 54 48.90  5.1523 5.6255 112.9 22.3 1.14  90
2019 06 15 21  21 28 21.092   +11 55 00.83  5.1518 5.6255 112.9 22.3 1.15  90
2019 06 15 22  21 28 20.733   +11 55 12.76  5.1512 5.6255 112.9 22.3 1.16  90
2019 06 15 23  21 28 20.373   +11 55 24.68  5.1507 5.6255 113.0 22.3 1.17  90
2019 06 16 00  21 28 20.011   +11 55 36.59  5.1502 5.6255 113.0 22.3 1.18  90
2019 06 16 01  21 28 19.649   +11 55 48.49  5.1496 5.6255 113.0 22.3 1.20  90
2019 06 16 02  21 28 19.285   +11 56 00.39  5.1491 5.6255 113.1 22.3 1.21  90
2019 06 16 03  21 28 18.921   +11 56 12.28  5.1486 5.6255 113.1 22.3 1.22  90
2019 06 16 04  21 28 18.555   +11 56 24.16  5.1481 5.6255 113.2 22.3 1.23  90
2019 06 16 05  21 28 18.188   +11 56 36.04  5.1475 5.6255 113.2 22.3 1.24  90
2019 06 16 06  21 28 17.820   +11 56 47.91  5.1470 5.6255 113.2 22.3 1.26  90
2019 06 16 07  21 28 17.451   +11 56 59.77  5.1465 5.6255 113.3 22.3 1.27  90
2019 06 16 08  21 28 17.080   +11 57 11.62  5.1459 5.6255 113.3 22.3 1.28  90
2019 06 16 09  21 28 16.709   +11 57 23.47  5.1454 5.6255 113.3 22.3 1.29  90
2019 06 16 10  21 28 16.336   +11 57 35.31  5.1449 5.6255 113.4 22.3 1.30  90
2019 06 16 11  21 28 15.962   +11 57 47.14  5.1444 5.6255 113.4 22.3 1.32  90
2019 06 16 12  21 28 15.588   +11 57 58.97  5.1438 5.6255 113.4 22.3 1.33  90
2019 06 16 13  21 28 15.212   +11 58 10.78  5.1433 5.6255 113.5 22.3 1.34  90
2019 06 16 14  21 28 14.835   +11 58 22.59  5.1428 5.6255 113.5 22.3 1.35  90
2019 06 16 15  21 28 14.456   +11 58 34.40  5.1423 5.6255 113.5 22.3 1.37  90
2019 06 16 16  21 28 14.077   +11 58 46.19  5.1417 5.6255 113.6 22.3 1.38  90
2019 06 16 17  21 28 13.696   +11 58 57.98  5.1412 5.6255 113.6 22.3 1.39  90
2019 06 16 18  21 28 13.315   +11 59 09.76  5.1407 5.6255 113.6 22.3 1.40  90
2019 06 16 19  21 28 12.932   +11 59 21.54  5.1402 5.6255 113.7 22.3 1.42  90
2019 06 16 20  21 28 12.548   +11 59 33.30  5.1396 5.6255 113.7 22.3 1.43  90
2019 06 16 21  21 28 12.163   +11 59 45.06  5.1391 5.6255 113.7 22.3 1.44  90
2019 06 16 22  21 28 11.777   +11 59 56.81  5.1386 5.6255 113.8 22.3 1.46  90
2019 06 16 23  21 28 11.390   +12 00 08.56  5.1381 5.6255 113.8 22.3 1.47  90
2019 06 17 00  21 28 11.001   +12 00 20.30  5.1375 5.6255 113.8 22.3 1.48  90
2019 06 17 01  21 28 10.612   +12 00 32.03  5.1370 5.6255 113.9 22.3 1.50  90
2019 06 17 02  21 28 10.221   +12 00 43.75  5.1365 5.6255 113.9 22.3 1.51  90
2019 06 17 03  21 28 09.829   +12 00 55.46  5.1360 5.6255 114.0 22.3 1.52  90
2019 06 17 04  21 28 09.437   +12 01 07.17  5.1354 5.6255 114.0 22.3 1.54  90
2019 06 17 05  21 28 09.043   +12 01 18.87  5.1349 5.6255 114.0 22.3 1.55  90
2019 06 17 06  21 28 08.647   +12 01 30.56  5.1344 5.6255 114.1 22.3 1.56  90
2019 06 17 07  21 28 08.251   +12 01 42.25  5.1339 5.6255 114.1 22.3 1.58  90
2019 06 17 08  21 28 07.854   +12 01 53.93  5.1334 5.6255 114.1 22.3 1.59  90
2019 06 17 09  21 28 07.455   +12 02 05.60  5.1328 5.6255 114.2 22.3 1.60  90
2019 06 17 10  21 28 07.055   +12 02 17.26  5.1323 5.6255 114.2 22.3 1.62  90
2019 06 17 11  21 28 06.655   +12 02 28.92  5.1318 5.6255 114.2 22.3 1.63  90
2019 06 17 12  21 28 06.253   +12 02 40.57  5.1313 5.6255 114.3 22.3 1.64  90
2019 06 17 13  21 28 05.850   +12 02 52.21  5.1307 5.6255 114.3 22.3 1.66  90
2019 06 17 14  21 28 05.446   +12 03 03.84  5.1302 5.6255 114.3 22.3 1.67  90
2019 06 17 15  21 28 05.040   +12 03 15.47  5.1297 5.6255 114.4 22.3 1.68  90
2019 06 17 16  21 28 04.634   +12 03 27.09  5.1292 5.6255 114.4 22.3 1.70  90
2019 06 17 17  21 28 04.226   +12 03 38.70  5.1287 5.6255 114.4 22.3 1.71  90
2019 06 17 18  21 28 03.818   +12 03 50.30  5.1281 5.6255 114.5 22.3 1.73  90